Hourly Data Report for August 03, 2015

All times are specified in Local Standard Time (LST). Add 1 hour to adjust for Daylight Saving Time where and when it is observed.

TORONTO INTL A
ONTARIO

43°40'36.000" N
79°37'50.000" W
173.40 m
6158731
71624
YYZ

Download Data

Hourly Data (August 2015)
Hourly Data Report for August 3, 2015
Temp Definition
°C
Dew Point Temp Definition
°C
Rel Hum Definition
%
Wind Dir Definition
10's deg

Wind Spd Definition
km/h
Visibility Definition
km
Stn Press Definition
kPa
Hmdx Definition


Wind Chill Definition


Weather Definition


TIME
00:00 Legend Double Dagger 18.3 16.3 88 20 17 24.1 98.34     Rain
01:00 Legend Double Dagger 18.2 15.9 86 23 30 24.1 98.32     Rain
02:00 Legend Double Dagger 17.9 15.6 86 19 18 24.1 98.18     Rain
03:00 Legend Double Dagger 17.5 15.7 89 32 22 24.1 98.34     Rain
04:00 Legend Double Dagger 17.6 15.6 88 25 18 24.1 98.40     Mostly Cloudy
05:00 Legend Double Dagger 17.7 15.5 87 25 23 24.1 98.47     LegendNANA
06:00 Legend Double Dagger 18.0 15.7 86 27 26 24.1 98.46     LegendNANA
07:00 Legend Double Dagger 19.0 15.7 81 26 35 24.1 98.50     Mostly Cloudy
08:00 Legend Double Dagger 20.0 16.1 78 26 30 24.1 98.53 25   LegendNANA
09:00 Legend Double Dagger 21.1 16.4 74 26 26 24.1 98.54 26   LegendNANA
10:00 Legend Double Dagger 23.1 16.5 66 27 25 24.1 98.59 28   Mostly Cloudy
11:00 Legend Double Dagger 24.3 14.3 53 28 27 24.1 98.59 28   LegendNANA
12:00 Legend Double Dagger 25.8 14.5 49 25 21 24.1 98.61 29   LegendNANA
13:00 Legend Double Dagger 24.2 11.0 43 29 26 24.1 98.65 26   Mostly Cloudy
14:00 Legend Double Dagger 25.5 10.8 39 29 23 24.1 98.65 27   LegendNANA
15:00 Legend Double Dagger 26.0 11.2 39 26 17 24.1 98.65 28   LegendNANA
16:00 Legend Double Dagger 26.4 10.4 36 26 28 24.1 98.66 28   Mainly Clear
17:00 Legend Double Dagger 25.5 9.6 36 29 26 24.1 98.61 27   LegendNANA
18:00 Legend Double Dagger 24.2 10.7 42 28 22 24.1 98.65 26   LegendNANA
19:00 Legend Double Dagger 23.6 10.1 42 27 28 24.1 98.69 25   Mostly Cloudy
20:00 Legend Double Dagger 22.0 11.0 49 28 17 24.1 98.75     LegendNANA
21:00 Legend Double Dagger 21.8 11.7 52 28 16 24.1 98.80     LegendNANA
22:00 Legend Double Dagger 20.4 12.2 59 29 18 24.1 98.83     Mainly Clear
23:00 Legend Double Dagger 19.0 12.6 66 26 10 24.1 98.85     LegendNANA

Notes on Data Quality.

Legend

  • E = Estimated
  • M = Missing
  • NA = Not Available
  • ‡ = Partner data that is not subject to review by the National Climate Archives
Date modified: